Weather History for Columbus, OH

Change the Weather History Date:

Thursday, December 6, 2012

  Actual Average Record
Temperature  
Mean Temperature 37 °F 36 °F  
Max Temperature 46 °F 43 °F 73 °F (1998)
Min Temperature 27 °F 29 °F 3 °F (1977)
Degree Days  
Heating Degree Days 28 29  
Month to date heating degree days 100 167  
Since 1 July heating degree days 1217 1181  
Cooling Degree Days 0 0  
Month to date cooling degree days 0 0  
Year to date cooling degree days 1439 1024  
Moisture  
Dew Point 28 °F    
Average Humidity 64    
Maximum Humidity 75    
Minimum Humidity 53    
Precipitation  
Precipitation T in 0.10 in 1.10 in (1971)
Month to date precipitation 1.20 0.58  
Year to date precipitation 32.77 36.92  
Snow  
Snow 0.00 in 0.10 in 5.10 in (2013)
Month to date snowfall 0.0 0.6  
Since 1 July snowfall 0.8 1.7  
Snow Depth 0.00 in    
Sea Level Pressure  
Sea Level Pressure 30.17 in    
Wind  
Wind Speed 6 mph (SE)    
Max Wind Speed 13 mph    
Max Gust Speed 17 mph    
Visibility 10 miles    
Events      
T = Trace of Precipitation, MM = Missing Value Source: NWS Daily Summary

Daily Weather History Graph

Daily Weather History Graph

Search for Another Location

Airport:

Trip Planner

Search our weather history database for the weather conditions in past years. The results will help you decide how hot, cold, wet, or windy it might be!

Date:

Astronomy

Dec. 06, 2012 Rise Set
Actual Time 7:39 AM EST 5:06 PM EST
Civil Twilight 7:09 AM EST 5:36 PM EST
Nautical Twilight 6:35 AM EST 6:10 PM EST
Astronomical Twilight 6:02 AM EST 6:43 PM EST
Moon No Moon Rise 12:31 PM EST (12/6)
Length of Visible Light 10h 27m
Length of Day
9h 26m
Waning Gibbous, 49% of the Moon is Illuminated
Dec 6
Waning Gibbous
Dec 13
New
Dec 20
First Quarter
Dec 28
Full
Jan 4
Last Quarter

Hourly Weather History & Observations

Time (EST) Temp. Windchill Dew Point Humidity Pressure Visibility Wind Dir Wind Speed Gust Speed Precip Events Conditions
12:51 AM 30.0 °F 24.1 °F 21.9 °F 72% 30.34 in 10.0 mi East 5.8 mph - N/A   Partly Cloudy
1:51 AM 28.9 °F 22.8 °F 21.9 °F 75% 30.33 in 10.0 mi ESE 5.8 mph - N/A   Partly Cloudy
2:51 AM 28.0 °F 22.8 °F 21.0 °F 75% 30.32 in 10.0 mi East 4.6 mph - N/A   Scattered Clouds
3:51 AM 28.9 °F 25.2 °F 21.0 °F 72% 30.30 in 10.0 mi ESE 3.5 mph - N/A   Mostly Cloudy
4:51 AM 28.9 °F 22.8 °F 21.9 °F 75% 30.29 in 10.0 mi ESE 5.8 mph - N/A   Scattered Clouds
5:51 AM 28.0 °F 22.8 °F 21.9 °F 78% 30.29 in 10.0 mi ESE 4.6 mph - N/A   Scattered Clouds
6:51 AM 28.0 °F 21.7 °F 21.9 °F 78% 30.28 in 10.0 mi East 5.8 mph - N/A   Scattered Clouds
7:51 AM 28.9 °F 21.9 °F 21.9 °F 75% 30.27 in 10.0 mi East 6.9 mph - N/A   Scattered Clouds
8:51 AM 32.0 °F 24.2 °F 23.0 °F 69% 30.27 in 10.0 mi ESE 9.2 mph - N/A   Mostly Cloudy
9:51 AM 34.0 °F 25.5 °F 24.1 °F 67% 30.22 in 10.0 mi ESE 11.5 mph - N/A   Mostly Cloudy
10:51 AM 39.0 °F 32.8 °F 28.0 °F 65% 30.21 in 10.0 mi SE 9.2 mph - N/A   Mostly Cloudy
11:51 AM 42.1 °F 37.1 °F 28.9 °F 60% 30.18 in 10.0 mi ESE 8.1 mph - N/A   Mostly Cloudy
12:51 PM 44.1 °F 41.5 °F 28.9 °F 55% 30.15 in 10.0 mi South 4.6 mph - N/A   Mostly Cloudy
1:51 PM 44.1 °F 40.8 °F 28.9 °F 55% 30.12 in 10.0 mi South 5.8 mph - N/A   Mostly Cloudy
2:51 PM 45.0 °F 43.5 °F 30.0 °F 56% 30.09 in 10.0 mi ESE 3.5 mph - N/A   Mostly Cloudy
3:51 PM 45.0 °F 42.6 °F 30.9 °F 58% 30.09 in 10.0 mi SE 4.6 mph - N/A   Mostly Cloudy
4:51 PM 42.1 °F 39.2 °F 32.0 °F 67% 30.07 in 10.0 mi East 4.6 mph - N/A   Overcast
5:51 PM 42.1 °F 40.2 °F 32.0 °F 67% 30.07 in 10.0 mi SE 3.5 mph - N/A   Overcast
6:51 PM 43.0 °F 41.3 °F 33.1 °F 68% 30.07 in 10.0 mi SE 3.5 mph - N/A   Overcast
7:51 PM 44.1 °F 42.5 °F 33.1 °F 65% 30.07 in 10.0 mi SE 3.5 mph - N/A   Overcast
8:51 PM 44.1 °F 40.8 °F 33.1 °F 65% 30.04 in 10.0 mi SE 5.8 mph - N/A   Overcast
9:51 PM 45.0 °F 43.5 °F 34.0 °F 65% 30.03 in 10.0 mi SSE 3.5 mph - N/A   Overcast
10:19 PM 44.6 °F 43.1 °F 35.6 °F 71% 30.01 in 10.0 mi SSE 3.5 mph - 0.00 in   Overcast
10:43 PM 44.6 °F 42.2 °F 35.6 °F 71% 30.01 in 10.0 mi South 4.6 mph - 0.00 in   Overcast
10:51 PM 45.0 °F 42.6 °F 36.0 °F 71% 30.03 in 10.0 mi South 4.6 mph - 0.00 in   Overcast
11:51 PM 44.1 °F 41.5 °F 39.9 °F 85% 30.00 in 10.0 mi SE 4.6 mph - 0.00 in   Overcast